KAL147 RKSI-EGLL

Flight info

Callsign KAL147
Flight time N/A
Altitude 30000
Route BINIL Y697 AGAVO A591 IKEKA W4 HCH W200 DOVIV W55 PAMRU W34 LADIX B339 ASILA A575 UPREK W28 LAGEB W66 NUKTI B215 FKG A368 SARIN N161 LEKBA DCT LEYLA T916 MATAL M11 REBLO UM11 CRM UL746 ODERO L746 LUGEB DCT BUDOP DCT BEGLA DCT DEXIT DCT INBED DCT BOMBI DCT ADKUV DCT SOGRI DCT DENUT L608 LOGAN
Aircraft B77W/H-SDE1E2E3FGHIJ2J3J4J5M1RWXY/LB1D1

Departure

Time 2026-05-06 15:46
Airport Incheon International Airport (RKSI)

Arrival

Time N/A
Airport London Heathrow Airport (EGLL)
Time Latitude Longitude Altitude Speed Heading
2026-05-06 15:20 37.46325 126.43203 35 ft 0 kts 66°
2026-05-06 15:35 37.46321 126.43194 35 ft 2 kts 66°
2026-05-06 15:36 37.46315 126.43176 35 ft 2 kts 66°
2026-05-06 15:36 37.46309 126.43160 35 ft 2 kts 66°
2026-05-06 15:36 37.46303 126.43142 35 ft 2 kts 66°
2026-05-06 15:36 37.46299 126.43130 35 ft 1 kts 66°
2026-05-06 15:37 37.46292 126.43115 35 ft 2 kts 47°
2026-05-06 15:37 37.46280 126.43102 35 ft 2 kts 25°
2026-05-06 15:37 37.46267 126.43097 35 ft 2 kts
2026-05-06 15:37 37.46251 126.43097 35 ft 2 kts 346°
2026-05-06 15:38 37.46243 126.43101 35 ft 1 kts 334°
2026-05-06 15:38 37.46240 126.43102 35 ft 0 kts 334°
2026-05-06 15:39 37.46244 126.43100 35 ft 2 kts 334°
2026-05-06 15:40 37.46277 126.43081 35 ft 8 kts 335°
2026-05-06 15:40 37.46336 126.43045 35 ft 8 kts 325°
2026-05-06 15:40 37.46353 126.42978 35 ft 9 kts 238°
2026-05-06 15:40 37.46316 126.42915 35 ft 8 kts 233°
2026-05-06 15:41 37.46293 126.42860 35 ft 6 kts 270°
2026-05-06 15:41 37.46323 126.42817 35 ft 7 kts 324°
2026-05-06 15:41 37.46377 126.42769 35 ft 10 kts 324°
2026-05-06 15:41 37.46449 126.42706 35 ft 14 kts 324°
2026-05-06 15:42 37.46535 126.42629 35 ft 16 kts 324°
2026-05-06 15:42 37.46636 126.42540 35 ft 18 kts 324°
2026-05-06 15:42 37.46749 126.42440 35 ft 20 kts 324°
2026-05-06 15:42 37.46874 126.42329 35 ft 22 kts 324°
2026-05-06 15:43 37.46993 126.42223 35 ft 19 kts 324°
2026-05-06 15:43 37.47105 126.42123 35 ft 20 kts 324°
2026-05-06 15:43 37.47223 126.42018 35 ft 20 kts 324°
2026-05-06 15:43 37.47338 126.41917 35 ft 17 kts 324°
2026-05-06 15:44 37.47403 126.41855 35 ft 8 kts 308°
2026-05-06 15:44 37.47392 126.41783 35 ft 10 kts 235°
2026-05-06 15:44 37.47347 126.41702 35 ft 12 kts 235°
2026-05-06 15:44 37.47294 126.41609 35 ft 8 kts 233°
2026-05-06 15:45 37.47253 126.41582 35 ft 8 kts 176°
2026-05-06 15:45 37.47185 126.41636 35 ft 22 kts 144°
2026-05-06 15:45 37.46880 126.41905 35 ft 82 kts 144°
2026-05-06 15:45 37.46252 126.42466 35 ft 136 kts 144°
2026-05-06 15:46 37.45355 126.43264 68 ft 174 kts 142°
2026-05-06 15:46 37.44346 126.44135 508 ft 180 kts 151°
2026-05-06 15:46 37.43234 126.44927 1088 ft 187 kts 153°
2026-05-06 15:46 37.42097 126.45771 1751 ft 188 kts 153°
2026-05-06 15:47 37.40985 126.46612 2132 ft 192 kts 154°
2026-05-06 15:47 37.39831 126.47483 2532 ft 193 kts 154°
2026-05-06 15:47 37.38665 126.48330 2916 ft 193 kts 161°
2026-05-06 15:47 37.37366 126.48851 3153 ft 201 kts 169°
2026-05-06 15:48 37.35941 126.49326 3291 ft 220 kts 169°
2026-05-06 15:48 37.34395 126.49847 3495 ft 237 kts 169°
2026-05-06 15:48 37.32746 126.50406 3753 ft 253 kts 168°
2026-05-06 15:48 37.31044 126.50985 4292 ft 257 kts 168°
2026-05-06 15:49 37.29282 126.51424 4798 ft 257 kts 183°
2026-05-06 15:49 37.27547 126.51007 5237 ft 257 kts 207°
2026-05-06 15:49 37.26061 126.49741 5783 ft 257 kts 222°
2026-05-06 15:49 37.24752 126.48246 6390 ft 257 kts 224°
2026-05-06 15:50 37.23420 126.46678 6846 ft 263 kts 224°
2026-05-06 15:50 37.22098 126.45121 7435 ft 263 kts 225°
2026-05-06 15:50 37.20758 126.43546 7968 ft 266 kts 225°
2026-05-06 15:50 37.19392 126.41943 8484 ft 269 kts 225°
2026-05-06 15:51 37.18017 126.40330 8983 ft 272 kts 225°
2026-05-06 15:51 37.16646 126.38722 9515 ft 273 kts 225°
2026-05-06 15:51 37.15240 126.37074 9922 ft 278 kts 225°
2026-05-06 15:51 37.13833 126.35426 9972 ft 278 kts 226°
2026-05-06 15:52 37.12418 126.33771 9972 ft 277 kts 226°
2026-05-06 15:52 37.11158 126.31951 9964 ft 274 kts 244°
2026-05-06 15:52 37.10556 126.29712 10007 ft 280 kts 264°
2026-05-06 15:52 37.10429 126.27254 10432 ft 286 kts 268°
2026-05-06 15:53 37.10386 126.24706 10580 ft 303 kts 269°
2026-05-06 15:53 37.10361 126.21988 10802 ft 317 kts 269°
2026-05-06 15:53 37.10336 126.19138 11010 ft 333 kts 269°
2026-05-06 15:53 37.10310 126.16177 11237 ft 348 kts 269°
2026-05-06 15:54 37.10287 126.13077 11492 ft 362 kts 271°
2026-05-06 15:54 37.10548 126.09946 11903 ft 371 kts 280°
2026-05-06 15:54 37.11285 126.06831 12462 ft 376 kts 290°
2026-05-06 15:54 37.12307 126.03802 13137 ft 378 kts 291°
2026-05-06 15:55 37.13354 126.00770 13775 ft 380 kts 291°
2026-05-06 15:55 37.14404 125.97725 14386 ft 384 kts 291°
2026-05-06 15:55 37.15461 125.94654 15023 ft 387 kts 291°
2026-05-06 15:55 37.16538 125.91525 15718 ft 388 kts 291°
2026-05-06 15:56 37.17595 125.88448 16382 ft 390 kts 290°
2026-05-06 15:56 37.18667 125.85321 17010 ft 392 kts 290°
2026-05-06 15:56 37.19745 125.82173 17619 ft 394 kts 290°
2026-05-06 15:56 37.20826 125.79015 18184 ft 397 kts 290°
2026-05-06 15:57 37.21920 125.75816 18773 ft 399 kts 290°
2026-05-06 15:57 37.23010 125.72623 19337 ft 402 kts 290°
2026-05-06 15:57 37.24116 125.69382 19917 ft 404 kts 289°
2026-05-06 15:57 37.25221 125.66138 20495 ft 406 kts 289°
2026-05-06 15:58 37.26333 125.62870 21066 ft 408 kts 289°
2026-05-06 15:58 37.27454 125.59573 21587 ft 411 kts 289°
2026-05-06 15:58 37.28570 125.56287 22134 ft 412 kts 289°
2026-05-06 15:58 37.29688 125.52992 22646 ft 414 kts 289°
2026-05-06 15:59 37.30811 125.49676 23137 ft 416 kts 289°
2026-05-06 15:59 37.31942 125.46334 23592 ft 418 kts 289°
2026-05-06 15:59 37.33085 125.42953 23993 ft 422 kts 289°
2026-05-06 15:59 37.34231 125.39557 24376 ft 426 kts 289°
2026-05-06 16:00 37.35385 125.36137 24861 ft 427 kts 289°
2026-05-06 16:00 37.36550 125.32680 25354 ft 429 kts 288°
2026-05-06 16:00 37.37712 125.29226 25805 ft 431 kts 289°
2026-05-06 16:00 37.38755 125.25669 26188 ft 431 kts 282°
2026-05-06 16:01 37.39385 125.22020 26474 ft 433 kts 275°
2026-05-06 16:01 37.39594 125.18228 26801 ft 435 kts 268°
2026-05-06 16:01 37.39547 125.14405 27294 ft 435 kts 267°
2026-05-06 16:01 37.39482 125.10639 27787 ft 436 kts 267°
2026-05-06 16:02 37.39413 125.06791 28211 ft 437 kts 266°
2026-05-06 16:02 37.39344 125.03005 28562 ft 440 kts 267°
2026-05-06 16:02 37.39272 124.99120 28909 ft 443 kts 267°
2026-05-06 16:02 37.39199 124.95241 29261 ft 446 kts 267°
2026-05-06 16:03 37.39124 124.91347 29700 ft 447 kts 267°
2026-05-06 16:03 37.39048 124.87466 29937 ft 448 kts 267°
2026-05-06 16:03 37.38893 124.79662 29942 ft 440 kts 267°
2026-05-06 16:04 37.38732 124.71979 29934 ft 439 kts 267°
2026-05-06 16:04 37.38568 124.64317 29935 ft 441 kts 266°
2026-05-06 16:05 37.38398 124.56666 29922 ft 438 kts 267°
2026-05-06 16:05 37.38211 124.48980 29915 ft 440 kts 265°
2026-05-06 16:06 37.37077 124.41524 29912 ft 436 kts 252°
2026-05-06 16:06 37.34450 124.34628 29905 ft 438 kts 240°
2026-05-06 16:07 37.31216 124.28154 29920 ft 438 kts 240°
2026-05-06 16:07 37.27959 124.21667 29909 ft 439 kts 240°
2026-05-06 16:08 37.24699 124.15188 29910 ft 438 kts 240°
2026-05-06 16:08 37.21386 124.08788 29912 ft 441 kts 239°
2026-05-06 16:09 37.17983 124.02432 29906 ft 442 kts 238°
2026-05-06 16:09 37.14609 123.96030 29905 ft 439 kts 240°